Location: Central Falls
(41.8900°N, 71.3929°W)
Time: 04:04:19
(UTC+00:00)

Vanguard 2 - Pass Details

Date: 10 December 2023
Orbit: 554 x 2918 km, 32.9° (Epoch: 01 March)

Event Time Altitude Azimuth Distance (km) Brightness Sun altitude
Rises 07:16:54 0° 276° (W) 6,058 - -52.0°
Reaches altitude 10° 07:23:38 10° 257° (WSW) 4,534 - -50.8°
Maximum altitude 07:29:23 15° 228° (SW) 3,620 - -49.7°
Drops below altitude 10° 07:34:05 10° 198° (SSW) 3,528 - -48.9°
Sets 07:38:13 0° 175° (S) 4,055 - -48.1°
